Flag for U.S.A. Weather past 2 weeks in Barnstable, Massachusetts, U.S.A.

Now
51 °F

Fog.


Feels Like: 48 °F
Forecast: 47 / 58 °F
Wind: 9 mph from Southeast

Location: Barnstable Municipal-Boardman Airport

Current Time: Apr 21, 2015 at 3:31:14 AM

Latest Report: Apr 21, 2015 at 2:56 AM


Visibility: 1 mi

Pressure: 29.64 "Hg

Humidity: 100%

Dew point: 51 °F

Location of BarnstableLocation

Historic Weather in Barnstable — Graph

°F

Barnstable temperature yesterday

Maximum temperature yesterday: 52 °F (at 11:56 PM)
Minimum temperature yesterday: 41 °F (at 12:56 AM)
Average temperature yesterday: 47 °F

Past Weeks' High & Low Weather Summary

 TemperatureHumidityPressure
High63 °F (Apr 15, 3:56 PM)100% (Apr 10, 7:56 AM)30.47 "Hg (Apr 10, 7:56 AM)
Low35 °F (Apr 9, 1:56 AM)21% (Apr 15, 3:56 PM)29.67 "Hg (Apr 21, 2:03 AM)
Average46 °F77%30.14 "Hg
* Reported Apr 6 2:56 AM — Apr 21 2:03 AM, Barnstable, Weather by CustomWeather, © 2015

Note: Actual official high and low records may vary slightly from our data, if they occured in-between our weather recording intervals... More about our weather records

Advertising

Barnstable weather history for previous 24 hours

 ConditionsComfort  
Time TempWeatherWind HumidityBarometerVisibility
2:03 AM
Tue, Apr 21
50 °FFog.10 mph100%29.67 "Hg1 mi
1:56 AM50 °FFog.10 mph100%29.68 "Hg2 mi
12:56 AM50 °FFog.16 mph100%29.70 "Hg5 mi
11:56 PM
Mon, Apr 20
52 °FLight rain. Fog.17 mph97%29.74 "Hg6 mi
10:56 PM51 °FFog.14 mph96%29.75 "Hg4 mi
9:56 PM51 °FFog.16 mph96%29.78 "Hg6 mi
8:56 PM50 °FLight rain. Fog.16 mph96%29.79 "Hg3 mi
7:56 PM50 °FHeavy rain. Fog.15 mph93%29.83 "Hg3 mi
6:56 PM49 °FLight rain. Fog.15 mph97%29.84 "Hg4 mi
5:56 PM50 °FLight rain. Fog.17 mph93%29.86 "Hg5 mi
4:56 PM50 °FMostly cloudy.15 mph89%29.87 "Hg9 mi
3:56 PM50 °FMostly cloudy.13 mph86%29.88 "Hg10 mi
2:56 PM48 °FLight rain. Mostly cloudy.15 mph86%29.92 "Hg7 mi
1:56 PM49 °FLight rain. Mostly cloudy.17 mph77%29.98 "Hg10 mi
12:56 PM49 °FPartly sunny.15 mph74%30.02 "Hg10 mi
11:56 AM48 °FOvercast.21 mph71%30.06 "Hg10 mi
10:56 AM47 °FOvercast.15 mph71%30.09 "Hg10 mi
9:56 AM46 °FPartly sunny.14 mph77%30.10 "Hg10 mi
8:56 AM45 °FPartly sunny.12 mph80%30.14 "Hg10 mi
7:56 AM44 °FSunny.12 mph79%30.15 "Hg10 mi
6:56 AM43 °FPassing clouds.9 mph82%30.19 "Hg10 mi
5:56 AM41 °FPassing clouds.8 mph93%30.18 "Hg10 mi
4:56 AM41 °FPassing clouds.6 mph93%30.17 "Hg10 mi
3:56 AM41 °FPassing clouds.7 mph89%30.19 "Hg10 mi
Weather by CustomWeather, © 2015

See weather overviewHow to use our weather pages